Верея

Россия / Московская область     55°46′21″N   39°05′54″E
темп.,
°C
ветер,
м/с
пор.,
м/с
влажн.,
%
обл.,
%
осадки,
мм/ч
давл.,
гПа
погр.,
м
5 марта, пт
пт500:00−8ссз2291100 0.0 100131
03:00−8сз249497 0.0 100389
06:00−9зсз239785 0.1 100572
09:00−7зсз369470 0.1 1006233
12:00−3зсз478399 0.1 1007929
15:00−3зсз587599 0.4 10091271
18:00−6зсз368354 0.3 1011123
21:00−10зсз238841 0.3 101428
6 марта, сб
сб600:00−12сз12910 0.0 101521
03:00−13з22920 0.0 101621
06:00−13з22920 0.0 101620
09:00−10з23920 0.0 1016131
12:00−5зсз248655 0.0 1017653
15:00−4сз347877 0.4 1015927
18:00−9сз128599 0.2 101521
21:00−11зюз228850 0.2 101521
7 марта, вс
вс700:00−12юз35920 0.0 101286
03:00−11ююз411914 0.0 1009246
06:00−9юз6138670 0.0 1005534
09:00−6ююз7147985 0.1 1001886
12:00−4ююз81592100 1.7 9951206
15:00−2зюз91395100 3.6 9931118
18:00−5з8167498 0.6 9951453
21:00−8зюз5138267 0.6 997417
8 марта, пн
пн800:00−7зюз6158164 0.0 995698
03:00−6юз6138882 0.0 995885
06:00−6зюз61290100 0.3 994738
09:00−8ссз61092100 0.6 995741
12:00−7зсз597593 0.1 997911
15:00−7зсз6108896 0.3 9991159
18:00−7сз51091100 0.3 1002844
21:00−11сз4119082 0.3 1006381
9 марта, вт
вт900:00−13зсз38940 0.0 1008175
03:00−16зсз36960 0.0 1010122
06:00−17сз389639 0.0 1012174
09:00−16сз379256 0.0 1014336
12:00−13сз368796 0.0 1015599
15:00−11сз468097 0.1 1015791
18:00−14сз238993 0.0 101656
21:00−18ссз229552 0.0 101820